Terminal Aerodrome Forecast
Issued by NWS

Home | Current Version | Previous Version | Text Only | Print | Product List | Glossary On
Versions: 1 2 3 4 5 6 7 8 9 10 11 12 13 14 15 16 17 18
207
FTUS43 KPAH 300202 AAA
TAFCGI
TAF AMD
KCGI 300202Z 3002/3024 08008KT P6SM FEW045 OVC070
     FM300700 11014G22KT 6SM -SHRA BR BKN015
      TEMPO 3009/3013 2SM TSRA BR BKN009CB
     FM301600 20012G19KT P6SM SCT015 BKN035=

USA.gov is the U.S. government's official web portal to all federal, state and local government web resources and services.